Location: Ajisawe
(8.4333°N, 4.3833°E)
Time: 00:20:49
(UTC+00:00)

S-56A Canister/Altair - Pass Details

Date: 21 April 2021
Orbit: 631 x 2501 km, 38.9° (Epoch: 15 May)

Event Time Altitude Azimuth Distance (km) Brightness Sun altitude
Rises 20:38:21 0° 247° (WSW) 5,898 12.5 -40.1°
Reaches altitude 10° 20:42:53 10° 253° (WSW) 4,678 11.9 -41.2°
Maximum altitude 20:54:13 41° 318° (NW) 2,280 10.0 -43.7°
Enters shadow 20:57:22 33° 357° (N) 2,347 10.0 -44.4°
